Location: Newark
(41.6500°N, 71.4833°W)
Time: 00:59:09
(UTC+00:00)

Tiros 1 - Pass Details

Date: 21 January 2020
Orbit: 631 x 664 km, 48.4° (Epoch: 20 February)

Event Time Altitude Azimuth Distance (km) Brightness Sun altitude
Rises 22:34:57 0° 293° (WNW) 2,974 11.4 -9.1°
Reaches altitude 10° 22:37:24 10° 301° (WNW) 2,067 10.4 -9.5°
Maximum altitude 22:41:56 42° 12° (NNE) 948 7.8 -10.3°
Enters shadow 22:45:37 15° 79° (ENE) 1,773 8.7 -11.0°
